Location: Devargunta
(16.7631°N, 80.9077°E)
Time: 11:05:01
(UTC+00:00)

Cosmos 2278 Rocket - Pass Details

Date: 19 January 2021
Orbit: 840 x 847 km, 71.0° (Epoch: 07 March)

Event Time Altitude Azimuth Distance (km) Brightness Sun altitude
Rises 15:01:59 0° 225° (SW) 3,385 6.1 -36.7°
Reaches altitude 10° 15:04:55 10° 240° (WSW) 2,452 5.3 -37.4°
Maximum altitude 15:09:16 23° 291° (WNW) 1,715 4.2 -38.4°
Enters shadow 15:09:26 23° 294° (WNW) 1,716 4.1 -38.5°
